This is the latest recevied weather packets stored in our database for station/object CA3DPI. If no packets are shown the sender has not sent any weather packets the latest 10 day(s).
| Time | Temp. | Humidity | Pressure | Rain* | Wind** | Luminosity | Snow |
|---|---|---|---|---|---|---|---|
| 1777721816 | 10° C | 55% | 1020.8 hPa | - | - | - | - |
| 1777721216 | 10° C | 57% | 1020.9 hPa | - | - | - | - |
| 1777720615 | 10° C | 57% | 1020.8 hPa | - | - | - | - |
| 1777720015 | 9.44° C | 57% | 1020.7 hPa | - | - | - | - |
| 1777719415 | 9.44° C | 56% | 1020.6 hPa | - | - | - | - |
| 1777718815 | 10° C | 56% | 1020.5 hPa | - | - | - | - |
| 1777718215 | 10.56° C | 55% | 1020.7 hPa | - | - | - | - |
| 1777717614 | 10° C | 58% | 1020.7 hPa | - | - | - | - |
| 1777717014 | 10° C | 57% | 1020.7 hPa | - | - | - | - |
| 1777716414 | 10° C | 49% | 1020.6 hPa | - | - | - | - |
| 1777715814 | 10° C | 51% | 1020.6 hPa | - | - | - | - |
| 1777715214 | 10° C | 49% | 1020.6 hPa | - | - | - | - |
| 1777714614 | 10° C | 49% | 1020.7 hPa | - | - | - | - |
| 1777714047 | 10° C | 54% | 1020.8 hPa | - | - | - | - |
| 1777714014 | 10° C | 54% | 1020.8 hPa | - | - | - | - |
| 1777713413 | 10° C | 49% | 1021 hPa | - | - | - | - |
| 1777712813 | 10.56° C | 51% | 1021 hPa | - | - | - | - |
| 1777712213 | 10.56° C | 53% | 1021.2 hPa | - | - | - | - |
| 1777711612 | 10.56° C | 50% | 1021.2 hPa | - | - | - | - |
| 1777711018 | 10.56° C | 51% | 1021.4 hPa | - | - | - | - |
| 1777710418 | 10.56° C | 54% | 1021.4 hPa | - | - | - | - |
| 1777709818 | 11.11° C | 55% | 1021.5 hPa | - | - | - | - |
| 1777709217 | 10.56° C | 54% | 1021.6 hPa | - | - | - | - |
| 1777708617 | 11.11° C | 56% | 1021.8 hPa | - | - | - | - |
| 1777708017 | 10.56° C | 54% | 1021.8 hPa | - | - | - | - |
* Rain since midnight (hover to see other rain measurements)
** Current wind speed in m/s (hover to see current wind gust speed)